Time,TemperatureF,DewpointF,PressureIn,WindDirection,WindDirectionDegrees,WindSpeedMPH,WindSpeedGustMPH,Humidity,HourlyPrecipIn,Conditions,Clouds,dailyrainin,SoftwareType,DateUTC
2013-07-24 00:02:00,62.5,57.0,29.98,North,360,2.0,7.0,81,0.00,,,0.00,weatherlink.com 1.10,2013-07-24 07:02:00,
2013-07-24 00:17:00,61.8,56.0,29.98,NNW,340,0.0,4.0,82,0.00,,,0.00,weatherlink.com 1.10,2013-07-24 07:17:00,
2013-07-24 00:32:00,61.1,56.0,29.99,NE,39,3.0,4.0,83,0.00,,,0.00,weatherlink.com 1.10,2013-07-24 07:32:00,
2013-07-24 00:47:00,60.6,56.0,29.99,North,11,4.0,5.0,84,0.00,,,0.00,weatherlink.com 1.10,2013-07-24 07:47:00,
2013-07-24 01:02:00,60.4,56.0,29.99,NNW,348,2.0,5.0,85,0.00,,,0.00,weatherlink.com 1.10,2013-07-24 08:02:00,
2013-07-24 01:18:00,60.4,56.0,29.99,NE,45,0.0,7.0,84,0.00,,,0.00,weatherlink.com 1.10,2013-07-24 08:18:00,
2013-07-24 01:33:00,60.1,55.0,29.99,NE,35,3.0,5.0,84,0.00,,,0.00,weatherlink.com 1.10,2013-07-24 08:33:00,
2013-07-24 01:47:00,59.9,55.0,29.99,NNE,23,2.0,9.0,84,0.00,,,0.00,weatherlink.com 1.10,2013-07-24 08:47:00,
2013-07-24 02:03:00,59.5,55.0,29.99,NE,49,2.0,5.0,85,0.00,,,0.00,weatherlink.com 1.10,2013-07-24 09:03:00,
2013-07-24 02:18:00,58.9,55.0,29.99,WNW,302,1.0,3.0,86,0.00,,,0.00,weatherlink.com 1.10,2013-07-24 09:18:00,
2013-07-24 02:33:00,58.3,55.0,29.99,NE,49,0.0,2.0,87,0.00,,,0.00,weatherlink.com 1.10,2013-07-24 09:33:00,
2013-07-24 02:48:00,57.2,54.0,29.99,West,263,0.0,1.0,89,0.00,,,0.00,weatherlink.com 1.10,2013-07-24 09:48:00,
2013-07-24 03:03:00,56.7,54.0,29.99,NW,323,1.0,3.0,90,0.00,,,0.00,weatherlink.com 1.10,2013-07-24 10:03:00,
2013-07-24 03:18:00,56.4,54.0,29.99,ENE,58,0.0,2.0,90,0.00,,,0.00,weatherlink.com 1.10,2013-07-24 10:18:00,
2013-07-24 03:33:00,55.9,53.0,29.99,WNW,301,1.0,3.0,91,0.00,,,0.00,weatherlink.com 1.10,2013-07-24 10:33:00,
2013-07-24 03:48:00,55.4,53.0,30.00,North,11,0.0,2.0,92,0.00,,,0.00,weatherlink.com 1.10,2013-07-24 10:48:00,
2013-07-24 04:03:00,55.1,53.0,30.00,NE,44,0.0,2.0,92,0.00,,,0.00,weatherlink.com 1.10,2013-07-24 11:03:00,
2013-07-24 04:18:00,54.8,53.0,30.00,NE,37,0.0,2.0,93,0.00,,,0.00,weatherlink.com 1.10,2013-07-24 11:18:00,
2013-07-24 04:33:00,54.7,53.0,30.00,NE,37,1.0,4.0,94,0.00,,,0.00,weatherlink.com 1.10,2013-07-24 11:33:00,
2013-07-24 04:48:00,54.6,53.0,30.00,NNE,18,2.0,6.0,94,0.00,,,0.00,weatherlink.com 1.10,2013-07-24 11:48:00,
2013-07-24 05:03:00,54.6,53.0,29.99,NNE,15,1.0,7.0,95,0.00,,,0.00,weatherlink.com 1.10,2013-07-24 12:03:00,
2013-07-24 05:18:00,54.5,53.0,29.99,WNW,300,2.0,6.0,95,0.00,,,0.00,weatherlink.com 1.10,2013-07-24 12:18:00,
2013-07-24 05:33:00,54.5,53.0,29.99,NW,305,0.0,5.0,95,0.00,,,0.00,weatherlink.com 1.10,2013-07-24 12:33:00,
2013-07-24 05:48:00,54.5,53.0,30.00,NW,304,1.0,7.0,95,0.00,,,0.00,weatherlink.com 1.10,2013-07-24 12:48:00,
2013-07-24 06:03:00,54.5,53.0,30.00,NNW,335,1.0,3.0,95,0.00,,,0.00,weatherlink.com 1.10,2013-07-24 13:03:00,
2013-07-24 06:18:00,54.5,53.0,30.01,NE,39,1.0,5.0,95,0.00,,,0.00,weatherlink.com 1.10,2013-07-24 13:18:00,
2013-07-24 06:33:00,54.6,53.0,30.02,North,350,2.0,6.0,95,0.00,,,0.00,weatherlink.com 1.10,2013-07-24 13:33:00,
2013-07-24 06:48:00,54.8,53.0,30.02,NNW,345,0.0,5.0,95,0.00,,,0.00,weatherlink.com 1.10,2013-07-24 13:48:00,
2013-07-24 07:03:00,54.9,54.0,30.02,NW,325,0.0,4.0,95,0.00,,,0.00,weatherlink.com 1.10,2013-07-24 14:03:00,
2013-07-24 07:18:00,55.3,54.0,30.03,NNE,29,0.0,3.0,94,0.00,,,0.00,weatherlink.com 1.10,2013-07-24 14:18:00,
2013-07-24 07:33:00,55.6,54.0,30.03,NW,324,1.0,4.0,94,0.00,,,0.00,weatherlink.com 1.10,2013-07-24 14:33:00,
2013-07-24 07:48:00,55.6,54.0,30.02,NW,318,4.0,8.0,93,0.00,,,0.00,weatherlink.com 1.10,2013-07-24 14:48:00,
2013-07-24 08:03:00,56.1,54.0,30.02,NNW,345,3.0,8.0,92,0.00,,,0.00,weatherlink.com 1.10,2013-07-24 15:03:00,
2013-07-24 08:18:00,57.2,54.0,30.02,North,356,3.0,9.0,90,0.00,,,0.00,weatherlink.com 1.10,2013-07-24 15:18:00,
2013-07-24 08:33:00,58.1,55.0,30.03,NW,317,2.0,8.0,88,0.00,,,0.00,weatherlink.com 1.10,2013-07-24 15:33:00,
2013-07-24 08:48:00,58.5,55.0,30.03,NNW,338,2.0,8.0,88,0.00,,,0.00,weatherlink.com 1.10,2013-07-24 15:48:00,
2013-07-24 09:03:00,59.1,55.0,30.03,WNW,300,2.0,8.0,86,0.00,,,0.00,weatherlink.com 1.10,2013-07-24 16:03:00,
2013-07-24 09:18:00,59.3,55.0,30.03,WNW,282,1.0,7.0,86,0.00,,,0.00,weatherlink.com 1.10,2013-07-24 16:18:00,
2013-07-24 09:33:00,59.5,55.0,30.03,WNW,302,3.0,10.0,85,0.00,,,0.00,weatherlink.com 1.10,2013-07-24 16:33:00,
2013-07-24 09:48:00,60.5,56.0,30.03,NW,309,2.0,7.0,84,0.00,,,0.00,weatherlink.com 1.10,2013-07-24 16:48:00,
2013-07-24 10:03:00,61.5,56.0,30.02,WNW,295,3.0,9.0,83,0.00,,,0.00,weatherlink.com 1.10,2013-07-24 17:03:00,
2013-07-24 10:18:00,62.4,57.0,30.02,WSW,249,6.0,10.0,81,0.00,,,0.00,weatherlink.com 1.10,2013-07-24 17:18:00,
2013-07-24 10:33:00,63.3,57.0,30.02,WNW,303,2.0,9.0,80,0.00,,,0.00,weatherlink.com 1.10,2013-07-24 17:33:00,
2013-07-24 10:49:00,65.0,58.0,30.02,NNW,348,4.0,9.0,78,0.00,,,0.00,weatherlink.com 1.10,2013-07-24 17:49:00,
2013-07-24 11:04:00,65.9,59.0,30.02,West,276,3.0,13.0,77,0.00,,,0.00,weatherlink.com 1.10,2013-07-24 18:04:00,
2013-07-24 11:19:00,66.8,59.0,30.01,NW,314,4.0,10.0,75,0.00,,,0.00,weatherlink.com 1.10,2013-07-24 18:19:00,
2013-07-24 11:34:00,67.9,59.0,30.01,WNW,300,3.0,10.0,73,0.00,,,0.00,weatherlink.com 1.10,2013-07-24 18:34:00,
2013-07-24 11:49:00,68.8,59.0,30.01,NE,49,6.0,11.0,71,0.00,,,0.00,weatherlink.com 1.10,2013-07-24 18:49:00,
2013-07-24 12:04:00,69.8,60.0,30.01,West,281,7.0,11.0,71,0.00,,,0.00,weatherlink.com 1.10,2013-07-24 19:04:00,
2013-07-24 12:19:00,70.5,60.0,30.01,NNE,27,5.0,9.0,69,0.00,,,0.00,weatherlink.com 1.10,2013-07-24 19:19:00,
2013-07-24 12:34:00,71.2,60.0,30.00,West,275,8.0,10.0,68,0.00,,,0.00,weatherlink.com 1.10,2013-07-24 19:34:00,
2013-07-24 12:49:00,72.4,60.0,30.00,West,269,6.0,13.0,66,0.00,,,0.00,weatherlink.com 1.10,2013-07-24 19:49:00,
2013-07-24 13:04:00,73.1,61.0,29.99,West,277,4.0,12.0,66,0.00,,,0.00,weatherlink.com 1.10,2013-07-24 20:04:00,
2013-07-24 13:19:00,74.7,62.0,29.99,WNW,295,4.0,10.0,64,0.00,,,0.00,weatherlink.com 1.10,2013-07-24 20:19:00,
2013-07-24 13:34:00,75.4,61.0,29.99,West,270,5.0,11.0,61,0.00,,,0.00,weatherlink.com 1.10,2013-07-24 20:34:00,
2013-07-24 13:49:00,75.6,62.0,29.99,SSW,195,2.0,10.0,62,0.00,,,0.00,weatherlink.com 1.10,2013-07-24 20:49:00,
2013-07-24 14:04:00,76.3,62.0,29.98,West,260,8.0,13.0,62,0.00,,,0.00,weatherlink.com 1.10,2013-07-24 21:04:00,
2013-07-24 14:19:00,77.4,63.0,29.98,WSW,248,5.0,12.0,61,0.00,,,0.00,weatherlink.com 1.10,2013-07-24 21:19:00,
2013-07-24 14:34:00,77.5,63.0,29.98,WSW,257,8.0,15.0,61,0.00,,,0.00,weatherlink.com 1.10,2013-07-24 21:34:00,
2013-07-24 14:49:00,78.1,63.0,29.98,West,267,8.0,14.0,61,0.00,,,0.00,weatherlink.com 1.10,2013-07-24 21:49:00,
2013-07-24 15:04:00,79.6,63.0,29.98,WNW,291,3.0,13.0,58,0.00,,,0.00,weatherlink.com 1.10,2013-07-24 22:04:00,
2013-07-24 15:19:00,80.5,63.0,29.97,NW,318,3.0,11.0,56,0.00,,,0.00,weatherlink.com 1.10,2013-07-24 22:19:00,
2013-07-24 15:34:00,81.1,63.0,29.97,NW,323,7.0,13.0,55,0.00,,,0.00,weatherlink.com 1.10,2013-07-24 22:34:00,
2013-07-24 15:49:00,80.9,64.0,29.97,West,279,3.0,13.0,56,0.00,,,0.00,weatherlink.com 1.10,2013-07-24 22:49:00,
2013-07-24 16:04:00,81.8,63.0,29.96,NNE,15,5.0,12.0,54,0.00,,,0.00,weatherlink.com 1.10,2013-07-24 23:04:00,
2013-07-24 16:19:00,81.6,63.0,29.96,NW,316,3.0,15.0,54,0.00,,,0.00,weatherlink.com 1.10,2013-07-24 23:19:00,
2013-07-24 16:35:00,81.7,63.0,29.96,NE,48,1.0,11.0,54,0.00,,,0.00,weatherlink.com 1.10,2013-07-24 23:35:00,
2013-07-24 16:50:00,82.1,63.0,29.96,NNE,17,8.0,12.0,52,0.00,,,0.00,weatherlink.com 1.10,2013-07-24 23:50:00,
2013-07-24 17:05:00,82.1,63.0,29.96,WNW,285,2.0,16.0,53,0.00,,,0.00,weatherlink.com 1.10,2013-07-25 00:05:00,
2013-07-24 17:20:00,82.2,62.0,29.96,North,354,11.0,12.0,51,0.00,,,0.00,weatherlink.com 1.10,2013-07-25 00:20:00,
2013-07-24 17:35:00,82.1,62.0,29.95,NW,325,2.0,10.0,51,0.00,,,0.00,weatherlink.com 1.10,2013-07-25 00:35:00,
2013-07-24 17:50:00,82.3,63.0,29.96,NE,39,9.0,15.0,52,0.00,,,0.00,weatherlink.com 1.10,2013-07-25 00:50:00,
2013-07-24 18:05:00,82.2,63.0,29.95,NNE,13,6.0,10.0,52,0.00,,,0.00,weatherlink.com 1.10,2013-07-25 01:05:00,
2013-07-24 18:20:00,82.2,62.0,29.95,NNE,33,4.0,11.0,51,0.00,,,0.00,weatherlink.com 1.10,2013-07-25 01:20:00,
2013-07-24 18:35:00,81.5,63.0,29.95,NNW,340,1.0,10.0,54,0.00,,,0.00,weatherlink.com 1.10,2013-07-25 01:35:00,
2013-07-24 18:50:00,80.7,62.0,29.95,North,6,4.0,10.0,54,0.00,,,0.00,weatherlink.com 1.10,2013-07-25 01:50:00,
2013-07-24 19:05:00,79.7,63.0,29.95,NNE,20,2.0,12.0,57,0.00,,,0.00,weatherlink.com 1.10,2013-07-25 02:05:00,
2013-07-24 19:20:00,78.3,63.0,29.95,NW,326,3.0,15.0,59,0.00,,,0.00,weatherlink.com 1.10,2013-07-25 02:20:00,
2013-07-24 19:35:00,76.8,62.0,29.96,NNW,340,6.0,11.0,61,0.00,,,0.00,weatherlink.com 1.10,2013-07-25 02:35:00,
2013-07-24 19:50:00,75.8,62.0,29.96,NE,41,5.0,14.0,62,0.00,,,0.00,weatherlink.com 1.10,2013-07-25 02:50:00,
2013-07-24 20:20:00,73.6,61.0,29.96,NNW,348,3.0,9.0,65,0.00,,,0.00,weatherlink.com 1.10,2013-07-25 03:20:00,
2013-07-24 20:35:00,72.2,61.0,29.97,NNE,15,2.0,9.0,67,0.00,,,0.00,weatherlink.com 1.10,2013-07-25 03:35:00,
2013-07-24 20:50:00,70.8,61.0,29.97,ENE,70,3.0,10.0,70,0.00,,,0.00,weatherlink.com 1.10,2013-07-25 03:50:00,
2013-07-24 21:05:00,69.8,60.0,29.98,NNW,342,4.0,10.0,71,0.00,,,0.00,weatherlink.com 1.10,2013-07-25 04:05:00,
2013-07-24 21:20:00,68.9,60.0,29.98,NNW,328,6.0,10.0,73,0.00,,,0.00,weatherlink.com 1.10,2013-07-25 04:20:00,
2013-07-24 21:35:00,67.9,60.0,29.98,NE,39,1.0,5.0,75,0.00,,,0.00,weatherlink.com 1.10,2013-07-25 04:35:00,
2013-07-24 21:50:00,67.0,59.0,29.99,NNW,328,2.0,6.0,76,0.00,,,0.00,weatherlink.com 1.10,2013-07-25 04:50:00,
2013-07-24 22:05:00,66.3,59.0,29.99,WNW,300,2.0,4.0,78,0.00,,,0.00,weatherlink.com 1.10,2013-07-25 05:05:00,
2013-07-24 22:20:00,65.5,59.0,29.99,NW,316,2.0,5.0,79,0.00,,,0.00,weatherlink.com 1.10,2013-07-25 05:20:00,
2013-07-24 22:35:00,64.8,59.0,29.99,NNE,17,1.0,7.0,80,0.00,,,0.00,weatherlink.com 1.10,2013-07-25 05:35:00,
2013-07-24 22:50:00,64.0,58.0,29.99,North,352,0.0,6.0,81,0.00,,,0.00,weatherlink.com 1.10,2013-07-25 05:50:00,
2013-07-24 23:05:00,63.5,58.0,29.99,WNW,300,2.0,8.0,81,0.00,,,0.00,weatherlink.com 1.10,2013-07-25 06:05:00,
2013-07-24 23:20:00,62.7,57.0,29.99,WNW,290,1.0,7.0,82,0.00,,,0.00,weatherlink.com 1.10,2013-07-25 06:20:00,
2013-07-24 23:35:00,62.1,57.0,29.99,NW,326,2.0,6.0,82,0.00,,,0.00,weatherlink.com 1.10,2013-07-25 06:35:00,
2013-07-24 23:50:00,61.7,56.0,29.99,West,274,1.0,6.0,82,0.00,,,0.00,weatherlink.com 1.10,2013-07-25 06:50:00,